This demonstration page uses our WeatherBlox Daily Observations layout. Learn more.

Left ArrowRight Arrow

Hourly Observations for July 23, 2018

Temp ( °F °C ) Dew Point ( °F °C ) Humidity (%) Winds ( mph kmh ) Pressure ( in mb ) Visibility ( mi km ) Precip ( " mm )
12:53 am 00:53 Clear 81 27.2 48 8.9 32 32 SE 8 13 29.81 1009 10 16 0.00 0.00
1:53 am 01:53 Clear 80 26.7 48 8.9 33 33 SE 8 13 29.80 1009 10 16 0.00 0.00
2:53 am 02:53 Clear 78 25.6 48 8.9 35 35 ESE 6 9 29.80 1009 10 16 0.00 0.00
3:53 am 03:53 Clear 77 25 48 8.9 36 36 ESE 7 11 29.79 1009 10 16 0.00 0.00
4:53 am 04:53 Clear 75 23.9 48 8.9 39 39 E 7 11 29.79 1009 10 16 0.00 0.00
5:53 am 05:53 Clear 73 22.8 49 9.4 43 43 E 6 9 29.80 1009 10 16 0.00 0.00
6:53 am 06:53 Clear 73 22.8 49 9.4 43 43 ESE 8 13 29.81 1009 10 16 0.00 0.00
7:53 am 07:53 Sunny 75 23.9 50 10 41 41 E 5 7 29.84 1011 10 16 0.00 0.00
8:53 am 08:53 Sunny 82 27.8 52 11.1 35 35 ESE 9 15 29.86 1011 10 16 0.00 0.00
9:53 am 09:53 Sunny 87 30.6 53 11.7 31 31 ESE 9 15 29.87 1012 10 16 0.00 0.00
10:53 am 10:53 Sunny 92 33.3 53 11.7 27 27 ESE 8 13 29.88 1012 10 16 0.00 0.00
11:53 am 11:53 Sunny 97 36.1 53 11.7 23 23 VRB 7 11 29.88 1012 10 16 0.00 0.00
12:53 pm 12:53 Sunny 100 37.8 49 9.4 18 18 E 15 24 29.89 1012 10 16 0.00 0.00
1:53 pm 13:53 Sunny 101 38.3 49 9.4 17 17 ESE 10 17 29.87 1011 10 16 0.00 0.00
2:53 pm 14:53 Sunny 104 40 48 8.9 15 15 VRB 7 11 29.83 1010 10 16 0.00 0.00
3:53 pm 15:53 Sunny 106 41.1 46 7.8 13 13 ESE 13 20 29.83 1010 10 16 0.00 0.00
4:53 pm 16:53 Sunny 106 41.1 46 7.8 13 13 ENE 13 20 29.81 1010 10 16 0.00 0.00
5:53 pm 17:53 Sunny 105 40.6 45 7.2 13 13 SSE 7 11 29.80 1009 10 16 0.00 0.00
6:53 pm 18:53 Sunny 105 40.6 45 7.2 13 13 SSE 8 13 29.80 1009 10 16 0.00 0.00
7:53 pm 19:53 Sunny 103 39.4 46 7.8 15 15 E 13 20 29.80 1009 10 16 0.00 0.00
8:53 pm 20:53 Sunny 98 36.7 45 7.2 16 16 E 9 15 29.81 1010 10 16 0.00 0.00
9:53 pm 21:53 Clear 93 33.9 45 7.2 19 19 E 7 11 29.83 1010 10 16 0.00 0.00
10:53 pm 22:53 Clear 92 33.3 51 10.6 25 25 ENE 12 19 29.86 1011 10 16 0.00 0.00
11:53 pm 23:53 Mostly Clear 88 31.1 58 14.4 36 36 ENE 18 30 29.89 1012 9 14 0.00 0.00

Powered by AerisWeather